ARIANE 5 R/B, 43176

Orbit data source: Space-Track

ARIANE 5 R/B, 43176 is space debris in HEO originally from a launch on Thu, 25 Jan 2018 UTC launched from the French Guiana (FRGUI). Debris objects in space refer to the collection of defunct objects orbiting the Earth. Examples of debris include non-operational satellites, rocket bodies, and fragments generated from explosions, collisions, or faulty payload assembly.

Loading next visibility...
Identifier
43176, 2018-012C
Orbit
HEO
Country
Flag of FRFR
Related business
Manufacturer
ArianeGroup
Mission
Spacecraft
Bus & Motor
ESC-A, Unknown motor
Mass
~5,000 kg wet, ~5,000 kg dry
Launch date (UTC)
2018-01-25 (8 years ago)
Launch vehicle
Unknown
Launch site
French Guiana (FRGUI)
Object type
Payload
Rocket body
Debris
Shape & HBR
Cyl + 1 Nozzle, 3.5 m
Radar Cross Section
41.627 m², Large (>1 m²)

Expand to show TLE details & history
Last TLE update: 5 days ago

TLE from 5 days ago
0 ARIANE 5 R/B
1 43176U 18012C   25302.85119068  .00003261  00000-0  10439-2 0  9994
2 43176  21.9181  47.0387 7486167  40.0231 355.7407  2.02695250 54622
Epoch: 2025-10-29T20:25Z
TLE epoch observation values (Epoch: 2025-10-29T20:25:42.874Z)
Latitude
-0.00012°
Longitude
62.14395°
Altitude
990.577 km
Speed
9.647 km/s
True Right ascension
03h 07m 57s
True Declination
0° 00' 00"
Sunlit
Object was in full shadow at epoch
Visualization orbit readout
Latitude
Unknown
Longitude
Unknown
Altitude
Unknown
Speed
Unknown
Apparent Right ascension
Unknown
Apparent Declination
Unknown
Sunlit
N/A
Visualization observer readout
Local Sidereal Time
21:09:28
Azimuth
Unknown
Elevation
Unknown
Doppler factor
Unknown
Orbital elements
Apogee altitude
39,747.494 km
Perigee altitude
252.941 km
Semi-major axis
26,378.354 km
Eccentricity
0.74862
Inclination
21.9181°
RAAN
47.0387°
Arg. of periapsis
40.0231°
True anomaly
318.63428°
Mean anomaly
355.7407°
Eccentric anomaly
343.70775°
Mean motion
0.50661 °/min
Orbital period
710.61 mins
BSTAR
0.0010439
Loading maneuver chart data...
Computing Atmospheric mass density...
Loading historical data...
Loading historical data...
Loading historical data...
Loading historical data...
Loading historical data...
Loading historical data...
Loading historical data...
Other satellites on launch #12 in the year 2018 (2018-01-25 UTC)

Documentation

Showing up to 5 results
|